Miscellaneous Local Product
Issued by NWS North Platte, NE

Home | Current Version | Previous Version | Graphics & Text | Print | Product List | Glossary On
Versions: 1 2 3 4 5 6 7 8 9 10 11 12 13 14 15 16 17 18 19 20 21 22 23 24 25 26 27 28 29 30 31 32 33 34 35 36 37 38 39 40 41 42 43 44 45 46 47 48 49 50
928
AXUS43 KLBF 301310
MISLBF


WESTERN AND NORTH CENTRAL NEBRASKA HOURLY WEATHER ROUNDUP
NATIONAL WEATHER SERVICE NORTH PLATTE NE
800 AM CDT SAT APR 30 2016

NOTE: "FAIR" INDICATES FEW OR NO CLOUDS BELOW 12,000 FEET WITH NO
SIGNIFICANT WEATHER AND/OR OBSTRUCTIONS TO VISIBILITY.

NOTE: STATIONS NOT REPORTING VARIABLES SUCH AS SKY/WEATHER OR
PRESSURE ARE PROVIDED BY RAWS AND APRS NETWORKS AND ARE NOT UNDER
NATIONAL WEATHER SERVICE QUALITY CONTROL.

...OBSERVATIONS IN AND NEAR THE EASTERN PANHANDLE OF NEBRASKA...

CITY           SKY/WX    TMP DP  RH WIND       PRES   REMARKS
PINE RIDGE     LGT RAIN  37  34  89 NE17      29.97R FOG     WCI  27
CHADRON        LGT RAIN  37  35  92 N17G25    29.98R FOG     WCI  27
ALLIANCE       SNOW      32  32 100 N18       29.90R VSB 1/2 WCI  20
SIDNEY         LGT SNOW  32  31  96 N20       29.86S VSB 3/4 WCI  20
CRESCENT LAKE    N/A     33  33 100 CALM        N/A
BIG SPRINGS      N/A     34  33  96 N5          N/A  WCI  30
$$

...OBSERVATIONS IN NORTHERN NEBRASKA AND FAR SOUTHERN SOUTH DAKOTA...

CITY           SKY/WX    TMP DP  RH WIND       PRES   REMARKS
WINNER         LGT RAIN  43  38  82 NE15      29.96R
VALENTINE      LGT RAIN  39  36  89 NE20G28   29.92S WCI  29
THEDFORD       SNOW      34  33  98 N10       29.85S VSB 1/2 WCI  26
AINSWORTH      LGT SNOW  35  34  97 NE17      29.90S WCI  25
O`NEILL        RAIN      40  38  93 NE16      29.87S WCI  32
ORD            LGT RAIN  40  38  93 NE17      29.76F WCI  31
BROKEN BOW     LGT RAIN  38  36  92 N16G22    29.78R FOG     WCI  29
VALENTINE NWR    N/A     33  32  98 NE10G23     N/A  WCI  25
BUTTE            N/A     40  39  96 NE17G24     N/A  WCI  31
HALSEY           N/A     32  31  98 N6          N/A  WCI  26
CHAMBERS         N/A     39  38  99 NE8         N/A  WCI  33
EWING            N/A     41  40  96 NE9G17      N/A
$$

...OBSERVATIONS IN SOUTHWEST NEBRASKA AND FAR NORTHEAST COLORADO...

CITY           SKY/WX    TMP DP  RH WIND       PRES   REMARKS
HOLYOKE        LGT SNOW  36  34  93 N9        29.84R WCI  29
IMPERIAL       CLOUDY    33  32  96 N14       29.82R WCI  23
OGALLALA       DRIZZLE   34  32  93 N13       29.84S WCI  25
NORTH PLATTE   LGT SNOW  33  32  96 NW6       29.81S FOG     WCI  28
MCCOOK         CLOUDY    36  34  92 N13       29.78S WCI  27
LEXINGTON      LGT RAIN  37  35  93 N10       29.76F WCI  30
PAXTON           N/A     34  33  95 CALM        N/A
STAPLETON        N/A     32  32  99 CALM        N/A
GOTHENBURG       N/A     35  33  92 NW7         N/A  WCI  29
CALLAWAY         N/A     33  32  97 N6          N/A  WCI  27
$$

...OBSERVATIONS IN CENTRAL LINCOLN COUNTY AREA...

CITY           SKY/WX    TMP DP  RH WIND       PRES   REMARKS
N.P. AIRPORT   LGT SNOW  33  32  96 NW6       29.81S FOG     WCI  28
N.P. DOWNTOWN    N/A     32  32  99 CALM        N/A
N.P. SOUTHEAST   N/A     32  32 100 CALM        N/A
N.P. HILLCREST   N/A     33  33 100 N7          N/A  WCI  27
$$

...SOME OBSERVATIONS FROM AROUND THE REGION...

CITY           SKY/WX    TMP DP  RH WIND       PRES   REMARKS
DENVER         LGT SNOW  31  28  89 N12       29.88R VSB 1   WCI  22
LARAMIE        LGT SNOW  24  23  96 N13       29.90R FOG     WCI  12
CHEYENNE       LGT SNOW  28  26  92 N15G22    29.89R VSB 3/4 WCI  16
SCOTTSBLUFF    LGT SNOW  34  31  88 N17       29.93R FOG     WCI  23
RAPID CITY     CLOUDY    40  37  89 N13       30.05R WCI  32
BISMARCK       CLOUDY    43  34  70 NE15      30.17R
PIERRE         PTSUNNY   43  38  82 NE15      30.02R
SIOUX FALLS    CLOUDY    45  38  76 E20G26    29.93R
OMAHA          LGT RAIN  46  43  89 E7        29.73S
GRAND ISLAND   LGT RAIN  42  40  92 NE14      29.73S FOG
KANSAS CITY    LGT RAIN  56  55  97 E6        29.66R VSB 1
WICHITA        CLOUDY    50  46  86 W14       29.74R
OKLAHOMA CITY  MOSUNNY   50  46  86 NW13      29.78S
DALLAS         DRIZZLE   62  57  83 NW12      29.77R
AMARILLO       SUNNY     39  35  86 N3        29.86R
DODGE CITY     CLOUDY    36  34  92 NW20      29.78R WCI  25
HAYS           CLOUDY    43  36  75 NW12      29.73R
GOODLAND       FOG       32  32 100 N14       29.79R VSB 1   WCI  22
$$




USA.gov is the U.S. government's official web portal to all federal, state and local government web resources and services.